Weather reports worldwide

Advertisment
Istres, France (7647): temperature & dewpoint: 19.03.2019 07:00:00 - 25.03.2019 07:00:00 (CET)Istres, France (7647): temperature 5cm: 19.03.2019 07:00:00 - 25.03.2019 07:00:00 (CET)Istres, France (7647): wind speed & gusts: 19.03.2019 07:00:00 - 25.03.2019 07:00:00 (CET)Istres, France (7647): wind direction: 19.03.2019 07:00:00 - 25.03.2019 07:00:00 (CET)Istres, France (7647): reduced air pressure: 19.03.2019 07:00:00 - 25.03.2019 07:00:00 (CET)Istres, France (7647): visibility: 19.03.2019 07:00:00 - 25.03.2019 07:00:00 (CET)Istres, France (7647): precipitation: 19.03.2019 07:00:00 - 25.03.2019 07:00:00 (CET)
Date & Time tt [°C] td [°C] tt 5cm [°C] ff [km/h] ff [kn] fx [km/h] fx [kn] dd ppp [hPa] vv [km] rr [mm]
25.03.2019 07:00:00 11,3 4,5 10,3 33 18 47 26 NW 1018,7 6 0,0
25.03.2019 06:00:00 12,2 4,4 11,2 28 15 48 26 NNW 1018,3 7 0,0
25.03.2019 05:00:00 12,6 4,5 11,6 31 17 49 26 NNW 1018,3 7 0,0
25.03.2019 04:00:00 12,9 4,3 11,0 18 10 37 20 NNW 1018,4 9 0,0
25.03.2019 03:00:00 13,4 4,8 12,4 26 14 37 20 NNW 1018,6 11 0,0
25.03.2019 02:00:00 14,1 4,4 11,3 20 11 29 16 NNW 1018,9 13 0,0
25.03.2019 01:00:00 12,9 6,2 6,3 16 8 20 11 NNW 1019,3 5 0,0
25.03.2019 00:00:00 9,4 6,7 7,0 5 3 16 9 NNW 1019,6 6 0,0
24.03.2019 23:00:00 10,9 7,6 8,0 2 1 15 8 SE 1019,9 9 0,0
24.03.2019 22:00:00 11,8 7,7 8,4 12 6 16 8 SSW 1020,2 11 0,0
24.03.2019 21:00:00 13,0 7,7 9,1 0 0 11 6 N 1020,3 12 0,0
24.03.2019 20:00:00 13,9 9,9 11,9 8 5 11 6 SE 1020,2 15 0,0
24.03.2019 19:00:00 15,0 10,2 13,5 8 5 17 9 SE 1020,2 20 0,0
24.03.2019 18:00:00 18,2 8,7 20,2 15 8 25 13 S 1019,8 27 0,0
24.03.2019 17:00:00 20,1 7,8 25,0 18 10 26 14 S 1020,0 20 0,0
24.03.2019 16:00:00 21,1 5,0 27,7 17 9 28 15 SSE 1020,5 42 0,0
24.03.2019 15:00:00 21,6 2,8 28,8 22 12 29 16 SSE 1020,9 20 0,0
24.03.2019 14:00:00 23,9 2,7 31,7 12 7 23 12 S 1021,2 30 0,0
24.03.2019 13:00:00 24,0 0,3 30,0 5 3 10 5 WSW 1022,1 40 0,0
24.03.2019 12:00:00 22,4 0,2 27,9 4 2 9 5 NE 1022,8 27 0,0
24.03.2019 11:00:00 20,3 0,7 24,5 3 1 11 6 SSE 1023,0 35 0,0
24.03.2019 10:00:00 18,2 1,2 19,8 4 2 13 7 E 1023,4 39 0,0
24.03.2019 09:00:00 14,9 1,7 15,3 9 5 18 10 NE 1023,2 41 0,0
24.03.2019 08:00:00 11,5 1,7 7,6 12 7 19 10 NNE 1023,0 44 0,0
24.03.2019 07:00:00 7,5 0,7 5,6 13 7 20 11 NNE 1022,7 50 0,0
24.03.2019 06:00:00 7,1 0,7 6,0 12 7 24 13 NNE 1022,6 48 0,0
24.03.2019 05:00:00 7,5 0,5 5,5 9 5 20 11 NNE 1022,6 35 0,0
24.03.2019 04:00:00 7,2 1,9 6,3 16 9 24 13 NNE 1022,6 28 0,0
24.03.2019 03:00:00 7,6 1,9 6,1 16 9 21 11 N 1022,5 26 0,0
24.03.2019 02:00:00 7,9 2,4 5,8 5 3 11 6 NNE 1022,8 18 0,0
24.03.2019 01:00:00 8,0 4,4 6,4 8 4 10 5 NE 1022,9 13 0,0
24.03.2019 00:00:00 8,8 4,6 6,5 6 3 8 5 N 1023,2 16 0,0
23.03.2019 23:00:00 12,0 5,4 7,2 6 3 10 5 E 1023,2 20 0,0
23.03.2019 22:00:00 12,5 6,5 8,2 8 4 13 7 SSE 1023,1 24 0,0
23.03.2019 21:00:00 13,2 7,6 11,3 12 6 14 8 SE 1023,1 31 0,0
23.03.2019 20:00:00 14,0 9,2 11,4 8 4 14 8 S 1022,8 31 0,0
23.03.2019 19:00:00 17,0 5,3 15,7 13 7 19 10 S 1022,1 39 0,0
23.03.2019 18:00:00 21,8 0,3 23,3 15 8 23 12 SSE 1021,6 49 0,0
23.03.2019 17:00:00 25,2 -0,1 30,5 5 3 14 8 SW 1021,4 43 0,0
23.03.2019 16:00:00 25,5 -0,6 31,0 4 2 12 6 N 1021,9 20 0,0
23.03.2019 15:00:00 24,7 -1,2 31,9 4 2 13 7 E 1022,3 19 0,0
23.03.2019 14:00:00 23,5 0,5 30,7 5 3 16 9 WNW 1023,0 26 0,0
23.03.2019 13:00:00 21,9 1,5 28,9 8 4 23 12 N 1023,7 31 0,0
23.03.2019 12:00:00 20,3 2,1 25,6 15 8 22 12 NNW 1024,0 19 0,0
23.03.2019 11:00:00 18,3 2,2 21,3 14 7 26 14 N 1024,7 19 0,0
23.03.2019 10:00:00 15,3 1,4 18,7 16 8 23 12 N 1025,2 20 0,0
23.03.2019 09:00:00 13,2 1,8 13,1 16 9 23 12 NNE 1025,1 28 0,0
23.03.2019 08:00:00 9,5 2,1 5,1 10 5 19 11 NNE 1025,1 33 0,0
23.03.2019 07:00:00 5,1 1,0 3,9 13 7 20 11 NNE 1024,9 34 0,0
23.03.2019 06:00:00 5,5 1,6 4,5 13 7 22 12 N 1025,0 27 0,0
23.03.2019 05:00:00 5,6 2,2 4,5 14 7 21 12 NNE 1025,1 23 0,0
23.03.2019 04:00:00 5,5 2,3 4,4 11 6 15 8 NNE 1025,4 14 0,0
23.03.2019 03:00:00 6,0 3,8 4,9 9 5 10 6 NE 1025,7 13 0,0
23.03.2019 02:00:00 6,5 4,8 5,6 8 5 12 6 NE 1026,2 12 0,0
23.03.2019 01:00:00 10,4 7,3 7,2 8 5 13 7 ESE 1026,2 9 0,0
23.03.2019 00:00:00 11,1 7,6 8,3 10 5 14 7 ESE 1026,6 15 0,0
22.03.2019 23:00:00 11,1 7,4 9,6 13 7 14 8 SE 1026,7 16 0,0
22.03.2019 22:00:00 12,7 4,1 8,9 8 4 13 7 SE 1026,8 37 0,0
22.03.2019 21:00:00 13,0 1,6 8,1 9 5 13 7 SE 1026,4 35 0,0
22.03.2019 20:00:00 13,9 2,1 8,2 3 2 11 6 SE 1025,8 44 0,0
22.03.2019 19:00:00 15,3 0,3 13,5 10 5 26 14 WSW 1025,5 57 0,0
22.03.2019 18:00:00 19,7 -1,5 20,6 20 11 29 16 WSW 1025,4 46 0,0
22.03.2019 17:00:00 21,6 -0,4 24,1 22 12 30 16 W 1025,4 23 0,0
22.03.2019 16:00:00 22,6 1,6 26,9 21 11 30 16 W 1025,7 26 0,0
22.03.2019 15:00:00 23,0 0,1 28,1 18 10 28 15 W 1026,3 20 0,0
22.03.2019 14:00:00 21,9 0,4 28,1 14 8 29 15 WNW 1027,0 20 0,0
22.03.2019 13:00:00 21,5 0,6 27,5 17 9 29 16 W 1027,4 18 0,0
22.03.2019 12:00:00 20,4 0,8 26,7 11 6 19 10 W 1028,0 32 0,0
22.03.2019 11:00:00 18,1 2,4 21,8 11 6 17 9 NNW 1028,4 18 0,0
22.03.2019 10:00:00 15,2 1,3 20,4 10 6 17 9 N 1028,5 20 0,0
22.03.2019 09:00:00 13,0 1,0 12,0 8 4 18 10 N 1028,3 20 0,0
22.03.2019 08:00:00 9,0 0,7 5,2 11 6 18 10 NNE 1028,1 19 0,0
22.03.2019 07:00:00 5,2 0,6 4,4 12 6 19 10 NNE 1027,7 30 0,0
22.03.2019 06:00:00 5,3 0,8 4,5 14 7 22 12 NNE 1027,4 21 0,0
22.03.2019 05:00:00 5,2 1,5 4,5 17 9 22 12 NNE 1027,3 20 0,0
22.03.2019 04:00:00 5,5 2,0 4,4 15 8 21 12 NNE 1027,6 15 0,0
22.03.2019 03:00:00 5,5 1,6 3,8 13 7 18 10 NNE 1027,7 16 0,0
22.03.2019 02:00:00 5,8 2,1 4,1 13 7 18 10 NNE 1028,0 12 0,0
22.03.2019 01:00:00 6,6 3,4 5,2 10 5 13 7 N 1028,0 13 0,0
22.03.2019 00:00:00 8,4 6,2 5,8 7 4 11 6 ENE 1028,3 10 0,0
21.03.2019 23:00:00 9,8 5,2 6,1 7 4 9 5 ESE 1028,4 17 0,0
21.03.2019 22:00:00 10,0 5,0 6,0 6 3 9 5 ESE 1028,3 19 0,0
21.03.2019 21:00:00 10,4 5,2 7,7 8 4 13 7 SSE 1028,1 25 0,0
21.03.2019 20:00:00 11,0 3,8 7,9 10 6 13 7 S 1027,5 26 0,0
21.03.2019 19:00:00 12,9 3,5 11,5 10 5 22 12 WSW 1026,8 29 0,0
21.03.2019 18:00:00 17,3 2,5 18,3 16 9 26 14 W 1026,3 20 0,0
21.03.2019 17:00:00 19,1 -2,0 23,2 11 6 32 17 NW 1026,1 27 0,0
21.03.2019 16:00:00 19,0 -1,5 24,5 9 5 23 12 W 1026,5 20 0,0
21.03.2019 15:00:00 18,8 -1,7 24,8 10 5 18 10 W 1026,9 20 0,0
21.03.2019 14:00:00 18,2 -2,2 25,0 4 2 16 9 SSW 1027,6 31 0,0
21.03.2019 13:00:00 16,9 -0,8 24,1 10 5 29 16 NW 1028,1 20 0,0
21.03.2019 12:00:00 16,0 0,1 22,7 9 5 16 9 WNW 1028,7 20 0,0
21.03.2019 11:00:00 14,7 1,6 20,4 4 2 13 7 NNW 1028,9 20 0,0
21.03.2019 10:00:00 12,4 1,7 15,3 10 6 16 9 N 1028,9 10 0,0
21.03.2019 09:00:00 9,6 1,2 10,5 7 4 16 8 NNE 1028,9 14 0,0
21.03.2019 08:00:00 6,2 0,9 2,8 8 4 15 8 N 1028,9 15 0,0
21.03.2019 07:00:00 2,9 -0,4 1,4 9 5 17 9 NNE 1028,3 31 0,0
21.03.2019 06:00:00 2,7 -0,8 1,7 11 6 16 9 NNE 1028,1 27 0,0
21.03.2019 05:00:00 3,7 0,0 2,4 10 5 17 9 NNE 1028,2 27 0,0
21.03.2019 04:00:00 3,6 -0,1 2,7 14 7 21 12 NNE 1028,2 27 0,0
21.03.2019 03:00:00 4,6 0,4 3,3 13 7 18 10 NNE 1028,3 32 0,0
21.03.2019 02:00:00 5,1 1,8 3,4 9 5 11 6 ENE 1028,5 30 0,0
21.03.2019 01:00:00 7,0 2,3 4,4 8 4 16 8 ENE 1028,7 34 0,0
21.03.2019 00:00:00 9,2 4,0 3,1 11 6 16 9 E 1028,8 30 0,0
20.03.2019 23:00:00 8,6 2,6 3,2 6 3 8 4 E 1028,8 34 0,0
20.03.2019 22:00:00 10,3 3,3 7,4 6 3 15 8 SE 1028,6 60 0,0
20.03.2019 21:00:00 10,3 4,6 8,2 13 7 18 10 SSE 1028,4 58 0,0
20.03.2019 20:00:00 11,4 3,9 7,4 5 3 13 7 ESE 1027,8 55 0,0
20.03.2019 19:00:00 12,6 -1,4 10,5 10 5 23 12 N 1027,1 52 0,0
20.03.2019 18:00:00 16,3 -2,3 17,4 18 10 27 15 NNW 1026,4 45 0,0
20.03.2019 17:00:00 17,7 -2,6 22,6 7 4 19 10 NW 1026,1 45 0,0
20.03.2019 16:00:00 16,8 -3,9 23,9 6 3 16 9 NW 1026,2 20 0,0
20.03.2019 15:00:00 16,5 -2,6 23,2 7 4 22 12 WNW 1026,5 58 0,0
20.03.2019 14:00:00 15,6 -1,5 22,4 10 6 20 11 NNW 1027,0 41 0,0
20.03.2019 13:00:00 15,0 -0,4 22,4 3 2 16 9 S 1027,6 19 0,0
20.03.2019 12:00:00 14,5 0,0 20,9 4 2 11 6 W 1027,9 34 0,0
20.03.2019 11:00:00 12,9 -0,4 18,2 5 3 21 11 N 1028,1 20 0,0
20.03.2019 10:00:00 11,1 -0,7 14,8 9 5 24 13 NNE 1028,2 27 0,0
20.03.2019 09:00:00 9,5 -0,7 12,0 16 8 29 16 N 1027,9 42 0,0
20.03.2019 08:00:00 6,5 -0,5 1,7 6 4 13 7 N 1027,5 42 0,0
20.03.2019 07:00:00 3,0 -1,6 -0,4 7 4 13 7 NNE 1026,8 55 0,0
20.03.2019 06:00:00 3,5 -1,3 2,3 12 6 21 12 N 1026,2 55 0,0
20.03.2019 05:00:00 4,8 -0,8 3,5 15 8 23 12 N 1026,0 59 0,0
20.03.2019 04:00:00 5,4 -0,7 4,0 17 9 23 13 N 1025,9 60 0,0
20.03.2019 03:00:00 5,8 -0,5 4,6 15 8 22 12 N 1026,0 60 0,0
20.03.2019 02:00:00 5,7 -0,4 4,1 15 8 22 12 N 1026,2 59 0,0
20.03.2019 01:00:00 5,7 -0,6 3,9 12 6 18 10 N 1026,0 60 0,0
20.03.2019 00:00:00 7,8 -0,7 6,5 14 8 31 17 N 1025,5 60 0,0
19.03.2019 23:00:00 10,0 -0,8 9,0 23 12 36 20 N 1025,0 60 0,0
19.03.2019 22:00:00 11,0 -1,1 10,1 29 16 47 25 NNW 1024,0 60 0,0
19.03.2019 21:00:00 11,5 -1,0 10,5 30 16 46 25 NNW 1023,6 59 0,0
19.03.2019 20:00:00 11,9 -1,0 10,9 30 16 46 25 NNW 1023,3 60 0,0
19.03.2019 19:00:00 12,7 -1,3 11,9 31 17 47 26 NNW 1022,9 60 0,0
19.03.2019 18:00:00 14,2 -2,3 14,5 31 17 47 25 NNW 1022,0 31 0,0
19.03.2019 17:00:00 14,7 -2,3 15,2 30 16 46 25 NW 1021,9 45 0,0
19.03.2019 16:00:00 15,3 -2,7 20,8 24 13 45 25 NNW 1021,8 28 0,0
19.03.2019 15:00:00 16,0 -2,5 21,8 27 15 40 22 NW 1021,8 36 0,0
19.03.2019 14:00:00 16,1 -0,6 16,8 18 10 41 22 NW 1021,8 50 0,0
19.03.2019 13:00:00 15,9 0,4 20,3 16 9 32 18 N 1022,1 15 0,0
19.03.2019 12:00:00 14,6 -0,7 19,4 24 13 37 20 N 1022,1 29 0,0
19.03.2019 11:00:00 13,6 -0,1 17,9 28 15 37 20 N 1021,8 31 0,0
19.03.2019 10:00:00 12,0 0,7 11,7 24 13 37 20 N 1021,6 30 0,0
19.03.2019 09:00:00 10,2 0,8 11,7 24 13 35 19 N 1021,1 19 0,0
19.03.2019 08:00:00 8,4 0,8 6,2 24 13 40 21 N 1020,8 42 0,0
19.03.2019 07:00:00 7,0 0,4 6,1 23 12 39 21 N 1020,1 60 0,0

tt = temperature
td = dewpoint
tt 5cm = temperature 5cm
ff = wind speed
fx = gusts
dd = wind direction
ppp = reduced air pressure
vv = visibility
rr = precipitation

Next stations